Regional Weather Roundup
Issued by NWS

Home | Current Version | Previous Version | Graphics & Text | Print | Product List | Glossary On
Versions: 1 2 3 4 5 6 7 8 9 10 11 12 13 14 15 16 17 18 19 20 21 22 23 24 25 26 27 28 29 30 31 32 33 34 35 36 37 38 39 40 41 42 43 44 45 46 47 48 49 50
000
ASUS45 KTFX 240410
RWRMT
MONTANA REGIONAL WEATHER ROUNDUP
NATIONAL WEATHER SERVICE GREAT FALLS MT
1000 PM MDT TUE MAY 23 2017

NOTE: "FAIR" INDICATES FEW OR NO CLOUDS BELOW 12000 FEET WITH NO
SIGNIFICANT WEATHER AND/OR OBSTRUCTIONS TO VISIBILITY.

MTZ001>007-043-240500-
WEST OF THE DIVIDE

CITY           SKY/WX    TMP DP  RH WIND       PRES   REMARKS
KALISPELL      CLEAR     68  40  35 SW10      29.65F
MISSOULA       CLEAR     69  41  36 NE3       29.77F
BUTTE          CLEAR     61  39  44 S5        29.90F
MULLAN PASS    CLEAR     56  36  47 SW10G23   29.88F
ANACONDA         N/A     66  37  34 W7        29.86F
DEER LODGE       N/A     61  39  44 W6        29.86F
EUREKA           N/A     73  43  33 S13       29.64F
HAMILTON         N/A     72  37  28 CALM      29.81F
RONAN            N/A     70  40  33 S6        29.81F
$$

MTZ008-052>055-240500-
SOUTHWEST MONTANA

CITY           SKY/WX    TMP DP  RH WIND       PRES   REMARKS
BOZEMAN        CLEAR     57  47  69 S9        29.83F
DILLON         CLEAR     65  34  31 S8        29.90F
W YELLOWSTONE  CLEAR     57  37  47 SW13G23   30.05F
ENNIS          CLEAR     64  39  39 S15G22    29.97F
THREE FORKS      N/A     62  47  58 CALM      29.83F
$$

MTZ009-010-012-014-046-048-049-054-240500-
EAST SLOPES AND CENTRAL MONTANA

CITY           SKY/WX    TMP DP  RH WIND       PRES   REMARKS
CUT BANK       CLOUDY    66  39  37 S12       29.64F
GREAT FALLS    CLOUDY    65  45  48 SW12      29.69F
MALMSTROM AFB  CLOUDY    62  50  63 SW12      29.68F
HELENA         PTCLDY    74  35  24 SW7       29.77S
CHOTEAU          N/A     66  41  39 SW9       29.71S
CONRAD           N/A     65  55  69 SW5       29.73F
$$

MTZ011-013-016-021-045-047-050-051-240500-
NORTH CENTRAL MONTANA

CITY           SKY/WX    TMP DP  RH WIND       PRES   REMARKS
HAVRE          PTCLDY    71  43  36 S17       29.60F
LEWISTOWN      CLEAR     59  45  59 SE5       29.76F
N BAR RANCH      N/A     59  41  51 VRB6G15   29.85F
CHINOOK          N/A     68  43  40 E6        29.63F
$$

MTZ017>020-022>027-061-062-240500-
NORTHEAST MONTANA

CITY           SKY/WX    TMP DP  RH WIND       PRES   REMARKS
GLASGOW        CLEAR     59  33  37 SE13      29.77F
JORDAN           N/A     60  34  37 S12       29.80F
SIDNEY         CLOUDY    61  34  36 S12       29.88F
WOLF POINT     PTCLDY    62  31  31 S3        29.81F
MALTA          CLEAR     66  37  34 S13G18    29.69F
PLENTYWOOD       N/A     57  34  41 SE12      29.84F
POPLAR           N/A     61  32  33 SE8       29.83F
$$

MTZ028>42-056>058-240500-
SOUTHCENTRAL AND SOUTHEAST MONTANA

CITY           SKY/WX    TMP DP  RH WIND       PRES   REMARKS
BAKER          CLOUDY    53  37  54 S13       29.93F
BILLINGS       PTCLDY    61  43  51 S7        29.83F
LIVINGSTON     CLEAR     57  44  62 NW5       29.83F
MILES CITY     CLEAR     57  37  47 SE8       29.86F
BIG TIMBER     CLEAR     61  45  55 SW6       29.86F
FORSYTH          N/A     61  36  39 SE6       29.83F
LAUREL           N/A     58  42  55 W2        29.84S
ROUNDUP          N/A     62  35  36 SE10      29.75F
$$

REGIONAL REPORTS...DAKOTAS

CITY           SKY/WX    TMP DP  RH WIND       PRES   REMARKS
WILLISTON      PTCLDY    61  37  41 SE10      29.89F
MINOT          PTCLDY    54  36  50 SE3       29.92F
DICKINSON      PTCLDY    46  32  58 SE8       29.93F
BEACH            N/A     50  34  53 SE10      29.95F
TIOGA            N/A     55  34  44 S12       29.92F
WATFORD CITY     N/A     57  34  41 SE12      29.90F
BISMARCK       CLOUDY    48  37  65 SE3       29.97F
GRAND FORKS    PTCLDY    46  42  86 SW6       29.94F
FARGO          CLEAR     50  43  77 N7        29.93F
BUFFALO SD       N/A     52  38  58 SE12      29.90F
RAPID CITY     PTCLDY    44  35  70 SE3       30.01R
$$

REGIONAL REPORTS...WYOMING/IDAHO/WASHINGTON

CITY           SKY/WX    TMP DP  RH WIND       PRES   REMARKS
GILLETTE       CLOUDY    44  39  82 S8        29.97F
SHERIDAN       CLEAR     50  42  74 S6        29.90F
BUFFALO WY     CLOUDY    53  38  56 S14       29.97F
CODY           CLEAR     56  38  50 S7        29.95F
YELLOWSTONE LA   N/A     40  35  83 CALM      30.16S
IDAHO FALLS    CLEAR     66  34  30 S13       29.98F
SALMON         CLEAR     70  39  32 SW14      29.83F
BOISE          CLEAR     73  42  32 SE10      29.84F
SPOKANE        PTCLDY    75  46  35 S15       29.65F
$$

REGIONAL REPORTS...ALBERTA

CITY           SKY/WX    TMP DP  RH WIND       PRES   REMARKS
EDMONTON       CLEAR     66  46  48 E7        29.29F
CALGARY        PTCLDY    70  37  30 S13G20    29.42F
LETHBRIDGE     PTCLDY    68  41  37 SW9       29.53F
MEDICINE HAT   MOCLDY    68  46  45 S9        29.49F
WATERTON GATE    N/A     63  36  36 SW8         N/A
MILK RIVER       N/A     66  45  45 SW9         N/A
$$

REGIONAL REPORTS...SASKATCHEWAN

CITY           SKY/WX    TMP DP  RH WIND       PRES   REMARKS
SWIFT CURRENT  CLOUDY    61  30  31 S22G29    29.63F
REGINA         PTCLDY    55  30  38 S13       29.76F
SASKATOON      PTCLDY    66  32  28 S18G26    29.59F
VAL MARIE        N/A     57  34  41 SE15        N/A
ROCKGLEN         N/A     55  32  41 S16         N/A
ASSINIBOIA       N/A     68  46  45 S10         N/A
$$



USA.gov is the U.S. government's official web portal to all federal, state and local government web resources and services.